Location: Rounton
(54.4000°N, 1.3500°W)
Time: 22:58:44
(UTC+01:00)

Vanguard 1 - Pass Details

Date: 29 February 2024
Orbit: 653 x 3825 km, 34.2° (Epoch: 21 April)

Event Time Altitude Azimuth Distance (km) Brightness Sun altitude
Rises 18:24:14 0° 212° (SSW) 4,868 14.2 -7.1°
Reaches altitude 10° 18:27:40 10° 200° (SSW) 4,291 13.6 -7.6°
Maximum altitude 18:37:20 27° 148° (SSE) 4,098 12.9 -9.0°
Enters shadow 18:50:54 11° 103° (ESE) 6,315 13.5 -11.0°
Drops below altitude 10° 18:51:33 10° 102° (ESE) 6,442 - -11.0°
Sets 18:58:22 0° 93° (E) 7,785 - -12.0°
